ONEWEB-0062 (45163 NORAD) Tracking and Keplerian Element Data

This shows tracking and keplerian element data for the satellite.

Feedback or suggestion? Click here.




ElementValue
Catalog45163
NameONEWEB-0062
Epoch Orbit3873
Epoch Day297.91667824
Epoch Year2020
RAAN86.4736
Inclination87.9108
Eccentricity0.0019223
Argument of Perigee125.2091
Mean Anonmoly233.3662
Mean Motion13.41892243
Decay Rate6.33E-05
L11 45163U 20008AJ 20297.91667824 .00006330 00000-0 11261-1 0 9996
L22 45163 87.9108 86.4736 0019223 125.2091 233.3662 13.41892243 38738

Live tracking and technical data element details for ONEWEB-0062 (NORAD 45163). ONEWEB-0062 can be tracked NOW for your location showing map with azimuth and elevation plus other details from your city location.

Track the satellite on the map from your city or location and see movement details for azimuth, elevation, latitude, longitude, range, height, and movement on the map or in text.







IsCatalogInMostPopularTable: catalog: 45163, numindb: 54
Update: records affected: 1



GetName: 45163 ONEWEB-0062

Hit Count: updated at: Sat, 24 Oct 2020 22:49:26 GMT